Montrose, CO

1:35 AM MDT on March 29, 2017 (GMT -0600)
Montrose Regional

Weather History for KMTJ - February, 2011

Change the Weather History Date:

Sunday, February 6, 2011

  Actual Average Record
Temperature  
Mean Temperature 22 °F 30 °F  
Max Temperature 34 °F 42 °F 65 °F (2015)
Min Temperature 10 °F 19 °F 0 °F (2008)
Degree Days  
Heating Degree Days 43 35  
Month to date heating degree days 213  
Since 1 July heating degree days 4018  
Cooling Degree Days 0 0  
Month to date cooling degree days 0  
Year to date cooling degree days 0  
Moisture  
Dew Point 10 °F    
Average Humidity 64    
Maximum Humidity 88    
Minimum Humidity 37    
Precipitation  
Precipitation 0.00 in 0.02 in 0.10 in (2012)
Month to date precipitation 0.09  
Year to date precipitation 0.74  
Sea Level Pressure  
Sea Level Pressure 30.26 in    
Wind  
Wind Speed 9 mph (SSE)    
Max Wind Speed 23 mph    
Max Gust Speed 28 mph    
Visibility 10 miles    
Events      
T = Trace of Precipitation, MM = Missing Value Source: NWS Daily Summary

Daily Weather History Graph

Daily Weather History Graph

Search for Another Location

Airport or City:

Trip Planner

Search our weather history database for the weather conditions in past years. The results will help you decide how hot, cold, wet, or windy it might be!

Date:

Astronomy

Feb. 06, 2011 Rise Set
Actual Time 7:12 AM MST 5:39 PM MST
Civil Twilight 6:44 AM MST 6:06 PM MST
Nautical Twilight 6:13 AM MST 6:38 PM MST
Astronomical Twilight 5:42 AM MST 7:09 PM MST
Moon 8:34 AM MST (2/6) 9:23 PM MST (2/6)
Length of Visible Light 11h 22m
Length of Day
10h 26m
Waxing Crescent, 12% of the Moon is Illuminated
Feb 6
Waxing Crescent
Feb 11
First Quarter
Feb 18
Full
Feb 24
Last Quarter
Mar 4
New

Hourly Weather History & Observations

Time (MST) Temp. Windchill Dew Point Humidity Pressure Visibility Wind Dir Wind Speed Gust Speed Precip Events Conditions
12:53 AM 17.1 °F 7.6 °F 14.0 °F 88% 30.10 in 10.0 mi SSE 6.9 mph - N/A   Clear
1:53 AM 15.1 °F 5.2 °F 10.9 °F 84% 30.10 in 10.0 mi SSE 6.9 mph - N/A   Clear
2:53 AM 12.0 °F 0.5 °F 9.0 °F 88% 30.11 in 10.0 mi SE 8.1 mph - N/A   Clear
3:53 AM 12.0 °F -0.4 °F 8.1 °F 84% 30.09 in 10.0 mi SE 9.2 mph - N/A   Clear
4:53 AM 12.0 °F -0.4 °F 7.0 °F 80% 30.13 in 10.0 mi SSE 9.2 mph - N/A   Clear
5:53 AM 10.9 °F -1.8 °F 6.1 °F 81% 30.18 in 10.0 mi ESE 9.2 mph - N/A   Clear
6:53 AM 12.9 °F 0.7 °F 6.1 °F 74% 30.20 in 10.0 mi SSE 9.2 mph - N/A   Clear
7:53 AM 12.9 °F -0.9 °F 6.1 °F 74% 30.25 in 10.0 mi SE 11.5 mph - N/A   Clear
8:53 AM 17.1 °F 6.6 °F 10.0 °F 74% 30.27 in 10.0 mi SE 8.1 mph - N/A   Mostly Cloudy
9:53 AM 23.0 °F 14.7 °F 12.9 °F 65% 30.26 in 10.0 mi SSE 6.9 mph - N/A   Scattered Clouds
10:53 AM 28.0 °F - 12.0 °F 51% 30.26 in 10.0 mi Calm Calm - N/A   Clear
11:53 AM 30.9 °F 22.8 °F 10.9 °F 43% 30.25 in 10.0 mi NW 9.2 mph - N/A   Partly Cloudy
12:53 PM 33.1 °F 22.6 °F 12.0 °F 42% 30.24 in 10.0 mi NW 16.1 mph 21.9 mph N/A   Clear
1:53 PM 34.0 °F 23.8 °F 12.0 °F 40% 30.23 in 10.0 mi West 16.1 mph - N/A   Clear
2:53 PM 34.0 °F 21.8 °F 10.0 °F 37% 30.25 in 10.0 mi NW 23.0 mph 27.6 mph N/A   Clear
3:53 PM 33.1 °F 20.9 °F 10.0 °F 38% 30.27 in 10.0 mi WNW 21.9 mph - N/A   Mostly Cloudy
4:53 PM 32.0 °F 20.5 °F 12.0 °F 44% 30.31 in 10.0 mi NW 18.4 mph - N/A   Clear
5:53 PM 28.0 °F 19.3 °F 12.9 °F 53% 30.35 in 10.0 mi WNW 9.2 mph - N/A   Clear
6:53 PM 25.0 °F - 12.9 °F 60% 30.39 in 10.0 mi Calm Calm - N/A   Clear
7:53 PM 24.1 °F 17.0 °F 12.9 °F 62% 30.40 in 10.0 mi South 5.8 mph - N/A   Mostly Cloudy
8:53 PM 19.9 °F 10.1 °F 12.0 °F 71% 30.42 in 10.0 mi SE 8.1 mph - N/A   Clear
9:53 PM 19.0 °F 8.2 °F 10.0 °F 68% 30.40 in 10.0 mi SE 9.2 mph - N/A   Clear
10:53 PM 18.0 °F 4.8 °F 9.0 °F 68% 30.39 in 10.0 mi SE 12.7 mph - N/A   Clear
11:53 PM 17.1 °F 5.8 °F 8.1 °F 68% 30.38 in 10.0 mi SE 9.2 mph - N/A   Clear